Other Public Products
Issued by NWS Grand Forks, ND

Home | Current Version | Previous Version | Graphics & Text | Print | Product List | Glossary On
Versions: 1 2 3 4 5 6 7 8 9 10 11 12 13 14 15 16 17 18 19 20 21 22 23 24 25 26 27 28 29 30 31 32 33 34 35 36 37 38 39 40 41 42 43 44 45 46 47 48 49 50
000
FPUS83 KFGF 230010
OPUFGF
PRAIRIE TO PINES WEATHER ROUNDUP
NATIONAL WEATHER SERVICE EASTERN NORTH DAKOTA/GRAND FORKS ND
700 PM CDT FRI JUL 22 2016

 **SATELLITE DATA USED TO AUGMENT SKY COVER AT AUTOMATED STATIONS**
 *****  WEATHER ACROSS EASTERN NORTH DAKOTA  *****

CITY           SKY/WX    TMP DP  RH WIND       PRES   REMARKS
GRAND FORKS    CLOUDY    81  64  56 NE8       29.96F
6HR MIN TEMP:  81; 6HR MAX TEMP:  87;

GRAND FORKS AF CLOUDY    80  64  57 NE9       29.97F
GRAND CITY NWS   N/A     79 N/A N/A NE5         N/A
BUXTON           N/A     84  69  60 NE8         N/A
DEVILS LAKE    CLOUDY    80  65  59 NE10      29.98F
6HR MIN TEMP:  80; 6HR MAX TEMP:  83;

FARGO          SUNNY     85  69  58 NE10      29.94F
6HR MIN TEMP:  84; 6HR MAX TEMP:  92;

WAHPETON ARPT  CLOUDY    86  64  48 E7        29.93F
$$

 *****  WEATHER ACROSS CENTRAL AND WESTERN NORTH DAKOTA  *****

CITY           SKY/WX    TMP DP  RH WIND       PRES   REMARKS
JAMESTOWN      CLOUDY    80  70  71 E9        29.98S
6HR MIN TEMP:  80; 6HR MAX TEMP:  88;

BISMARCK       CLOUDY    83  73  72 SE13G21   29.92R
6HR MIN TEMP:  83; 6HR MAX TEMP:  90;

MINOT          SUNNY     85  63  47 NE14      29.94F
6HR MIN TEMP:  85; 6HR MAX TEMP:  90;

MINOT AFB      SUNNY     83  62  50 E18       29.93F
6HR MIN TEMP:  81; 6HR MAX TEMP:  84; 6HR PCP: TRACE;

GARRISON         N/A     85  66  53 E16G24    29.93F
6HR MIN TEMP:  78; 6HR MAX TEMP:  86;

WILLISTON      PTSUNNY   86  61  42 E18G28    29.87F
6HR MIN TEMP:  86; 6HR MAX TEMP:  94;

DICKINSON      PTSUNNY   83  67  58 E12       29.87F
6HR MIN TEMP:  81; 6HR MAX TEMP:  89;

HETTINGER      LGT RAIN  76  62  62 S18G29    29.96R
6HR MIN TEMP:  78; 6HR MAX TEMP:  97; 6HR PCP: TRACE;

$$

 *****  OTHER OBSERVATIONS NORTHEAST NORTH DAKOTA  *****

CITY           SKY/WX    TMP DP  RH WIND       PRES   REMARKS
WALHALLA       NOT AVBL
LANGDON        FAIR      81  64  57 E6        30.00F
CAVALIER       FAIR      82  63  51 NE3       29.98F
GRAFTON        FAIR      81  66  61 NE7       29.99F
CANDO          NOT AVBL
FORT TOTTEN      N/A     82  65  55 E5        29.95
ROLLA            N/A     77  61  57 E6        30.02F
RUGBY          NOT AVBL
 ***** THE ABOVE OBSERVATIONS ARE NON NWS ARE NOT QUALITY
        CONTROLLED AND MAY MIS-REPORT RAIN FOR SNOW...
$$

 *****  OTHER OBSERVATIONS SOUTHEAST NORTH DAKOTA *****

CITY           SKY/WX    TMP DP  RH WIND       PRES   REMARKS
COOPERSTOWN    NOT AVBL
VALLEY CITY    FAIR      81  72  74 E12       29.98F
OAKES            N/A    N/A N/A N/A MISG        N/A
GWINNER        FAIR      82  72  69 E7        29.94F
BUFFALO          N/A     83  63  51 NE12        N/A
WYNDMERE       NOT AVBL
 ***** THE ABOVE OBSERVATIONS ARE NON NWS ARE NOT QUALITY
       CONTROLLED AND MAY MIS-REPORT RAIN FOR SNOW...
$$

  *****  WEATHER ACROSS NORTHERN MINNESOTA  *****

CITY           SKY/WX    TMP DP  RH WIND       PRES   REMARKS
FLAG ISLAND    SUNNY     79  61  53 NW13      29.97F
WARROAD        SUNNY     82  63  51 W7        29.99F
ROSEAU         SUNNY     81  64  57 W8        29.99F
HALLOCK        SUNNY     81  63  54 N3        29.98F
THF RVR FALLS  CLOUDY    79  63  57 NE5       29.99F
6HR MIN TEMP:  79; 6HR MAX TEMP:  84;

HALSTAD        NOT AVBL
FOSSTON        CLOUDY    81  70  69 CALM      30.00F
BAUDETTE       SUNNY     82  59  45 W8        29.99F
6HR MIN TEMP:  81; 6HR MAX TEMP:  85;

WASKISH        SUNNY     81  64  57 W6        30.00F
CROOKSTON      CLOUDY    81  66  61 NE5       29.97F
$$
  *****  WEATHER ACROSS CENTRAL AND WEST MINNESOTA  *****

CITY           SKY/WX    TMP DP  RH WIND       PRES   REMARKS
BEMIDJI        CLOUDY    82  59  44 NW6       30.01F
PARK RAPIDS    SUNNY     88  66  48 N6        29.99F HX  90
6HR MIN TEMP:  87; 6HR MAX TEMP:  91;

WADENA         MOSUNNY   82  70  65 CALM      29.99F
DETROIT LAKES  MOSUNNY   84  70  61 N5        30.00F
MOORHEAD       MOSUNNY   84  72  65 NE8       29.95F
FERGUS FALLS   CLOUDY    88  66  48 CALM      29.95F HX  90
ELBOW LAKE     FAIR      85  70  59 E5        29.96F
MORRIS MN      CLOUDY    82  72  69 E6        29.93F
STAPLES        CLOUDY    84  66  54 CALM      29.99F
WHEATON        NOT AVBL
$$
  *****  WEATHER ELSEWHERE ACROSS MINNESOTA  *****

CITY           SKY/WX    TMP DP  RH WIND       PRES   REMARKS
DULUTH         CLOUDY    83  60  45 NW7       30.00S
6HR MIN TEMP:  83; 6HR MAX TEMP:  90;

INTRNTL FALLS  SUNNY     81  56  42 W8        29.98F
6HR MIN TEMP:  81; 6HR MAX TEMP:  84;

ELY            SUNNY     82  52  34 NW9       29.98F
CLOQUET        MOSUNNY   84  57  39 NW5       30.00S
BRAINERD       CLOUDY    87  68  52 W5        29.99F HX  90
6HR MIN TEMP:  86; 6HR MAX TEMP:  90;

HIBBING        SUNNY     82  58  43 W8        30.00S
6HR MIN TEMP:  82; 6HR MAX TEMP:  86;

ALEXANDRIA     CLOUDY    85  66  53 E5        29.99F
6HR MIN TEMP:  85; 6HR MAX TEMP:  91;

SAINT CLOUD    CLOUDY    87  69  54 CALM      29.98F HX  91
6HR MIN TEMP:  87; 6HR MAX TEMP:  93;

MINNEAPOLIS    MOSUNNY   93  58  30 SE7       29.97F HX  92
6HR MIN TEMP:  93; 6HR MAX TEMP:  97;

$$

  *****  WEATHER ACROSS SOUTH DAKOTA  *****

CITY           SKY/WX    TMP DP  RH WIND       PRES   REMARKS
SIOUX FALLS    PTSUNNY   88  78  72 E15       29.96S HX 101
6HR MIN TEMP:  88; 6HR MAX TEMP:  93;

BROOKINGS      PTSUNNY   85  75  72 E12       29.98F HX  93
WATERTOWN      CLOUDY    85  68  56 SE14      29.92F
6HR MIN TEMP:  84; 6HR MAX TEMP:  94;

HURON          CLOUDY    88  74  63 SE12      29.92F HX  96
6HR MIN TEMP:  85; 6HR MAX TEMP:  99;

SISSETON         N/A     85  70  60 E12       29.91F
ABERDEEN       SUNNY     86  72  62 SE3       29.91F HX  92
6HR MIN TEMP:  75; 6HR MAX TEMP:  91; 6HR PCP:  0.12;

MITCHELL       MOSUNNY   89  77  67 E10       29.94S HX 101
PIERRE         MOSUNNY   88  68  51 SE21      29.88F HX  91
6HR MIN TEMP:  88; 6HR MAX TEMP: 101;

MOBRIDGE       LGT RAIN  79  63  57 E13G28    29.90R
RAPID CITY     CLOUDY    87  54  32 S16       29.93S
6HR MIN TEMP:  86; 6HR MAX TEMP: 101;

$$

  *****  SOME WEATHER IN NEARBY STATES *****

CITY           SKY/WX    TMP DP  RH WIND       PRES   REMARKS
GLASGOW MT     CLOUDY    88  57  34 E20G25    29.77F
6HR MIN TEMP:  86; 6HR MAX TEMP:  93;

GREAT FALLS MT SUNNY     90  23   9 W28G43    29.85R
6HR MIN TEMP:  80; 6HR MAX TEMP:  95;

CHEYENNE WY    SUNNY     85  45  24 SW6       30.17F
6HR MIN TEMP:  77; 6HR MAX TEMP:  91; 6HR PCP:  0.02;

SCOTTSBLUFF NE CLOUDY    81  64  56 E24G31    30.02S
6HR MIN TEMP:  78; 6HR MAX TEMP:  97; 6HR PCP: TRACE;

OMAHA NE       PTSUNNY   93  80  65 S10       29.89F HX 112
6HR MIN TEMP:  90; 6HR MAX TEMP:  94;

DES MOINES IA  MOSUNNY   90  77  65 S8        29.95S HX 103
6HR MIN TEMP:  88; 6HR MAX TEMP:  92;

DAVENPORT IA   SUNNY     85  76  74 W3        29.99F HX  94
6HR MIN TEMP:  82; 6HR MAX TEMP:  88;

CHICAGO IL     MOSUNNY   88  75  65 W3        29.96F HX  97
6HR MIN TEMP:  84; 6HR MAX TEMP:  90;

EAU CLAIRE WI  SUNNY     91  67  44 N3        29.98R HX  94
6HR MIN TEMP:  88; 6HR MAX TEMP:  93;

LA CROSSE WI   SUNNY     92  75  57 NW3       29.95S HX 103
6HR MIN TEMP:  87; 6HR MAX TEMP:  94;

$$

  *****  SOME NATIONAL WEATHER *****

CITY           SKY/WX    TMP DP  RH WIND       PRES   REMARKS
LA GUARDIA NY  PTCLDY    92  71  50 SW18      29.77S HX  98
6HR MIN TEMP:  92; 6HR MAX TEMP:  98;

RALEIGH NC     PTCLDY    83  71  67 SW7       29.99R               C1F1C2F2C3F3C4F4C5F5C6F6C7F7C8F8C9F9CaFaCbFbCcFcCdFdCe!



USA.gov is the U.S. government's official web portal to all federal, state and local government web resources and services.